Tracking 27086 objects as of 22-Mar-2023
HD Live streaming from Space Station
objects crossing your sky now

STARLINK-3576

Track STARLINK-3576 now!
10-day predictions
STARLINK-3576 is classified as:


NORAD ID: 51883
Int'l Code: 2022-022AH
Perigee: 545.9 km
Apogee: 547.9 km
Inclination: 53.2 °
Period: 95.4 minutes
Semi major axis: 6917 km
RCS: Unknown
Launch date: March 3, 2022
Source: United States (US)
Launch site: AIR FORCE EASTERN TEST RANGE (AFETR)
Your satellite tracking list
Your tracking list is empty




NASA's NSSDC Master Catalog

Two Line Element Set (TLE):
1 51883U 22022AH  23081.27831081  .00000156  00000-0  27882-4 0  9990
2 51883  53.2159 182.7439 0001505 105.2138 254.9020 15.08835821 59688
Source of the keplerian elements: AFSPC